Вернуться в каталог

GONETS-M 25

АктивенСвязьPO
NORAD 54152·PAYLOAD·🇷🇺 Russia

Запущен Oct 22, 2022 с Vostochny Cosmodrome

Loading…

Ближайшие Пролёты (ближайшие 24 часа)

TLE

СвежийSource: Space-Track

Эпоха: Sep 14, 2026, 13:46 UTC

1 54152U 22139C   26257.57377299  .00000025  00000-0  10631-3 0  9996
2 54152  82.5019 292.4864 0021161  38.8407 321.4189 12.42892654176757

Отслеживайте GONETS-M 25 в реальном времени с AllMySat

Download on the App Store